KB9IQX-WX Weather Reports


time (UTC)temp
F
wind
direction
speed
knots
gust
knots
rain 1hr
in
rain 24hr
in
rain mn
in
humidity
%
barometer
mb
20260505192621 67 0.0 0.0 0.00 0.00 0.00 3 1016.2
20260505185621 67 0.0 0.0 0.00 0.00 0.00 3 1016.1
20260505182621 67 0.0 0.0 0.00 0.00 0.00 3 1016.1
20260505175623 66 0.0 0.0 0.00 0.00 0.00 3 1016.0
20260505172622 66 0.0 0.0 0.00 0.00 0.00 3 1016.1
20260505165621 64 0.0 0.0 0.00 0.00 0.00 3 1015.9
20260505162622 63 0.0 0.0 0.00 0.00 0.00 3 1015.8
20260505152621 63 0.0 0.0 0.00 0.00 0.00 3 1015.6
20260505122620 62 0.0 0.0 0.00 0.00 0.00 4 1014.0
20260505115621 62 0.0 0.0 0.00 0.00 0.00 4 1013.9
20260505112620 63 0.0 0.0 0.00 0.00 0.00 4 1013.7
20260505095620 62 0.0 0.0 0.00 0.00 0.00 4 1013.2
20260505092620 61 0.0 0.0 0.00 0.00 0.00 4 1013.0
20260505085621 61 0.0 0.0 0.00 0.00 0.00 4 1012.7
20260505082621 62 0.0 0.0 0.00 0.00 0.00 4 1012.6
20260505075621 62 0.0 0.0 0.00 0.00 0.00 4 1012.5
20260505072621 63 0.0 0.0 0.00 0.00 0.00 4 1012.2
20260505065620 65 0.0 0.0 0.00 0.00 0.00 3 1011.7
20260505062621 65 0.0 0.0 0.00 0.00 0.00 3 1011.5
20260505055622 64 0.0 0.0 0.00 0.00 0.00 3 1011.2
20260505052621 67 0.0 0.0 0.00 0.00 0.00 3 1011.0
20260505035622 74 0.0 0.0 0.00 0.00 0.00 2 1009.7
20260505032622 76 0.0 0.0 0.00 0.00 0.00 2 1009.2
20260505025622 79 0.0 0.0 0.00 0.00 0.00 2 1008.9
20260505022621 82 0.0 0.0 0.00 0.00 0.00 2 1008.6
20260505015623 83 0.0 0.0 0.00 0.00 0.00 2 1008.6
20260505012621 87 0.0 0.0 0.00 0.00 0.00 2 1008.6
20260505005621 89 0.0 0.0 0.00 0.00 0.00 1 1008.6
20260505002620 91 0.0 0.0 0.00 0.00 0.00 1 1008.6
20260504235621 92 0.0 0.0 0.00 0.00 0.00 1 1008.7
20260504232621 92 0.0 0.0 0.00 0.00 0.00 1 1008.8
20260504225621 91 0.0 0.0 0.00 0.00 0.00 1 1008.9
20260504222621 96 0.0 0.0 0.00 0.00 0.00 1 1009.4
20260504215620 98 0.0 0.0 0.00 0.00 0.00 1 1009.6
20260504212622 98 0.0 0.0 0.00 0.00 0.00 1 1009.7
20260504205622 94 0.0 0.0 0.00 0.00 0.00 1 1009.9
20260504202621 96 0.0 0.0 0.00 0.00 0.00 1 1010.0
20260504195621 96 0.0 0.0 0.00 0.00 0.00 1 1010.0